Location: Diebersbach
(48.5163°N, 8.0558°E)
Time: 21:02:16
(UTC+00:00)

USA 229 - Pass Details

Date: 25 October 2021
Orbit: 946 x 1266 km, 63.4° (Epoch: 25 November)

Event Time Altitude Azimuth Distance (km) Brightness Sun altitude
Exits shadow 02:58:28 24° 175° (S) 2,311 5.3 -30.9°
Drops below altitude 10° 03:01:20 10° 166° (SSE) 3,216 6.1 -30.5°
Sets 03:04:14 0° 162° (SSE) 4,198 6.8 -30.0°
